Location: Bratislava
(48.1517°N, 17.1093°E)
Time: 14:58:52
(UTC+02:00)

ISS - Pass Details

Date: 21 April 2024
Orbit: 410 x 414 km, 51.6° (Epoch: 21 May)

Event Time Altitude Azimuth Distance (km) Brightness Sun altitude
Exits shadow 04:41:28 - 181° (S) 1,973 -0.7 -11.1°
Reaches altitude 10° 04:43:40 10° 153° (SSE) 1,472 -1.0 -10.8°
Maximum altitude 04:44:44 11° 134° (SE) 1,401 -0.9 -10.7°
Drops below altitude 10° 04:45:48 10° 115° (ESE) 1,474 -0.5 -10.5°
Sets 04:49:00 0° 80° (E) 2,301 1.5 -10.1°
